Location: Asheville, NC
(35.6000°N, 82.5500°W)
Time: 03:03:54
(UTC-04:00)

NUDT-PHONESAT - Pass Details

Date: 09 March 2018
Orbit: 492 x 511 km, 97.4° (Epoch: 19 June)

Event Time Altitude Azimuth Distance (km) Brightness Sun altitude
Rises 06:14:45 0° 24° (NNE) 2,607 ? -7.9°
Reaches altitude 10° 06:17:02 10° 36° (NE) 1,721 ? -7.4°
Maximum altitude 06:20:17 29° 97° (E) 958 ? -6.7°
Drops below altitude 10° 06:23:33 10° 159° (SSE) 1,720 ? -6.1°
Sets 06:25:49 0° 170° (S) 2,603 ? -5.6°
